Regional Weather Roundup
Issued by NWS Green Bay, WI

Home | Current Version | Previous Version | Text Only | Print | Product List | Glossary On
Versions: 1 2 3 4 5 6 7 8 9 10 11 12 13 14 15 16 17 18 19 20 21 22 23 24 25 26 27 28 29 30 31 32 33 34 35 36 37 38 39 40 41 42 43 44 45 46 47 48 49 50
000
ASUS43 KGRB 271359
RWRGRB

NORTH-CENTRAL AND NORTHEAST WISCONSIN REGIONAL WEATHER ROUNDUP
NATIONAL WEATHER SERVICE GREEN BAY WI
800 AM CST SAT DEC 27 2014

WIZ005-009-010>012-018-019-271500-
NORTH CENTRAL WISCONSIN

CITY           SKY/WX    TMP DP  RH WIND       PRES   REMARKS
IRONWOOD       CLOUDY    28  28 100 N6        29.91S VSB 3/4
MANITOWISH WTR NOT AVBL
ARBOR VITAE    NOT AVBL
EAGLE RIVER    NOT AVBL
LAND O LAKES   NOT AVBL
RHINELANDER    LGT SNOW  28  27  96 N6        29.84F VSB 3/4
PHILLIPS       NOT AVBL
ANTIGO         NOT AVBL
TOMAHAWK       NOT AVBL
MERRILL        NOT AVBL
$$

WIZ013-073-271500-
NORTHEAST WISCONSIN

CITY           SKY/WX    TMP DP  RH WIND       PRES   REMARKS
IRON MOUNTAIN  LGT SNOW  31  29  92 N6        29.85F VSB 3/4
MARINETTE      CLOUDY    34  32  93 NE14      29.81F
$$

WIZ017-030-035>037-045-271500-
CENTRAL WISCONSIN

CITY           SKY/WX    TMP DP  RH WIND       PRES   REMARKS
MEDFORD        NOT AVBL
WAUSAU         LGT SNOW  32  31  96 N5        29.80F FOG
MOSINEE        NOT AVBL
MARSHFIELD     LGT SNOW  33  31  92 N5        29.81F FOG
WISC RAPIDS    LGT RAIN  33  30  88 CALM      29.83S FOG
STEVENS POINT  NOT AVBL
WAUPACA        NOT AVBL
SHAWANO        NOT AVBL
CLINTONVILLE   NOT AVBL
$$

WIZ038-039-048-051-271500-
FOX VALLEY

CITY           SKY/WX    TMP DP  RH WIND       PRES   REMARKS
NWS GREEN BAY  LGT RAIN  35  34  96 N5        29.82F VSB 3/4
APPLETON       NOT AVBL
OSHKOSH        LGT RAIN  40  38  93 S9        29.81F FOG
FOND DU LAC    HVY RAIN  45  42  89 S14G23    29.81F FOG
$$

WIZ022-050-052-271500-
EAST CENTRAL WISCONSIN

CITY           SKY/WX    TMP DP  RH WIND       PRES   REMARKS
STURGEON BAY   CLOUDY    39  36  87 E8        29.82F VSB 1/2
MANITOWOC      NOT AVBL
SHEBOYGAN      CLOUDY    40  39  97 S8        29.83F FOG
$$

LMZ563-521-522-541>543-271500-
LAKESHORE

STATION/POSITION TIME  TEMP    WIND        PRES    VSBY  WAVE
                       AIR SEA DIR/SP/G                  HT/PER
                 (UTC) (F)     (DEG/KT/KT) (MB)    (MI)  (FT/S)
SHEBOYGAN LKSHOR 1300   39 39  180/ 13/ 14 1011.8F
KEWAUNEE LKSHORE 1300   38     150/  5/  8 1009.5F
TWO RIVERS CG    1300   37 37              1011.1    3/8
NORTHPORT PIER   1300   35      60/  8/ 12 1012.2F
SISTER BAY LKSHO 1300          120/  8/ 14   N/A
STURGEON BAY CG  1300   38      60/  7     1012.4      6   1
CHAMBERS ISLAND  1300   34      30/ 10/ 15 1011.5F
MENOMINEE LKSHOR 1300   34      30/ 14/ 16 1011.6F
$$


USA.gov is the U.S. government's official web portal to all federal, state and local government web resources and services.